This is the latest recevied weather packets stored in our database for station/object DD3UTS-13. If no packets are shown the sender has not sent any weather packets the latest 10 day(s).
| Time | Temp. | Humidity | Pressure | Rain* | Wind** | Luminosity | Snow |
|---|---|---|---|---|---|---|---|
| 1778140833 | 9.44° C | 90% | 1009.5 hPa | 5.08 mm | - | 69 W/m² | - |
| 1778140531 | 9.44° C | 90% | 1009.4 hPa | 4.83 mm | - | 73 W/m² | - |
| 1778140233 | 9.44° C | 89% | 1009.3 hPa | 4.83 mm | - | 61 W/m² | - |
| 1778139931 | 9.44° C | 90% | 1009.3 hPa | 4.83 mm | - | 55 W/m² | - |
| 1778139632 | 9.44° C | 90% | 1009.2 hPa | 4.32 mm | - | 43 W/m² | - |
| 1778139332 | 9.44° C | 90% | 1009.2 hPa | 4.32 mm | - | 42 W/m² | - |
| 1778139031 | 9.44° C | 89% | 1009.2 hPa | 4.32 mm | - | 41 W/m² | - |
| 1778138732 | 9.44° C | 89% | 1009.1 hPa | 4.32 mm | - | 48 W/m² | - |
| 1778138432 | 9.44° C | 89% | 1009.1 hPa | 4.32 mm | - | 43 W/m² | - |
| 1778138131 | 9.44° C | 89% | 1009 hPa | 4.32 mm | - | 46 W/m² | - |
| 1778137832 | 9.44° C | 89% | 1008.9 hPa | 4.32 mm | - | 59 W/m² | - |
| 1778137532 | 10° C | 89% | 1008.9 hPa | 4.06 mm | - | 66 W/m² | - |
| 1778137232 | 9.44° C | 89% | 1008.9 hPa | 4.06 mm | - | 59 W/m² | - |
| 1778136932 | 9.44° C | 89% | 1008.9 hPa | 4.06 mm | - | 43 W/m² | - |
| 1778136631 | 9.44° C | 89% | 1008.9 hPa | 4.06 mm | - | 44 W/m² | - |
| 1778136332 | 10° C | 89% | 1008.8 hPa | 4.06 mm | - | 52 W/m² | - |
| 1778136032 | 10° C | 89% | 1008.7 hPa | 4.06 mm | - | 46 W/m² | - |
| 1778135732 | 10° C | 89% | 1008.7 hPa | 3.81 mm | - | 48 W/m² | - |
| 1778135431 | 10° C | 89% | 1008.6 hPa | 3.81 mm | - | 44 W/m² | - |
| 1778135132 | 9.44° C | 89% | 1008.6 hPa | 3.81 mm | - | 46 W/m² | - |
| 1778134832 | 9.44° C | 89% | 1008.5 hPa | 3.81 mm | - | 39 W/m² | - |
| 1778134531 | 10° C | 89% | 1008.5 hPa | 3.81 mm | - | 37 W/m² | - |
| 1778134232 | 10° C | 89% | 1008.4 hPa | 3.56 mm | - | 38 W/m² | - |
| 1778133932 | 10° C | 89% | 1008.4 hPa | 3.3 mm | - | 25 W/m² | - |
| 1778133632 | 10° C | 89% | 1008.4 hPa | 3.3 mm | - | 24 W/m² | - |
* Rain latest 24 hours (hover to see other rain measurements)
** Current wind speed in m/s (hover to see current wind gust speed)